DW6083 Weather Reports


Display with metric or nautical units.
time (UTC)temp
F
wind
direction
speed
MPH
gust
MPH
rain 1hr
in
rain 24hr
in
rain mn
in
humidity
%
barometer
mb
20260505224508 0 182 5.0 10.0 0.00 0.00 0.00 1012.7
20260505223007 0 174 5.0 12.0 0.00 0.00 0.00 1012.6
20260505221504 0 205 4.0 14.0 0.00 0.00 0.00 1012.7
20260505220101 0 154 7.0 12.0 0.00 0.00 0.00 1012.6
20260505214607 0 204 5.0 12.0 0.00 0.00 0.00 1012.7
20260505213059 0 198 6.0 12.0 0.00 0.00 0.00 1013.0
20260505211548 0 207 3.0 10.0 0.00 0.00 0.00 1012.9
20260505210046 0 146 7.0 13.0 0.00 0.00 0.00 1013.0
20260505204539 0 195 5.0 13.0 0.00 0.00 0.00 1013.1
20260505203043 81 183 6.0 11.0 0.00 0.00 0.00 40 1013.2
20260505201544 81 209 3.0 8.0 0.00 0.00 0.00 40 1013.3
20260505200029 82 223 4.0 14.0 0.00 0.00 0.00 38 1013.6
20260505194512 81 161 8.0 14.0 0.00 0.00 0.00 40 1014.0
20260505193027 80 150 6.0 10.0 0.00 0.00 0.00 41 1014.1
20260505191503 81 146 7.0 12.0 0.00 0.00 0.00 41 1014.3
20260505190116 81 190 6.0 11.0 0.00 0.00 0.00 41 1014.5
20260505184605 80 167 4.0 10.0 0.00 0.00 0.00 43 1014.6
20260505183053 81 193 6.0 9.0 0.00 0.00 0.00 42 1014.8
20260505181546 80 202 4.0 10.0 0.00 0.00 0.00 47 1015.3
20260505180042 79 252 6.0 13.0 0.00 0.00 0.00 42 1015.6
20260505174539 78 191 9.0 20.0 0.00 0.00 0.00 44 1015.6
20260505173037 79 146 9.0 12.0 0.00 0.00 0.00 44 1015.6
20260505171530 79 188 7.0 14.0 0.00 0.00 0.00 48 1015.7
20260505170023 78 184 4.0 10.0 0.00 0.00 0.00 44 1015.7
20260505164530 77 157 5.0 11.0 0.00 0.00 0.00 47 1015.8
20260505163013 77 175 7.0 12.0 0.00 0.00 0.00 54 1016.0
20260505161507 76 198 4.0 10.0 0.00 0.00 0.00 53 1016.2
20260505153106 75 274 3.0 8.0 0.00 0.00 0.00 55 1016.6
20260505151549 74 241 5.0 11.0 0.00 0.00 0.00 56 1016.7
20260505124503 56 186 3.0 6.0 0.00 0.00 0.00 1 1016.5
20260505123113 54 186 2.0 4.0 0.00 0.00 0.00 1 1016.5
20260505121554 52 186 0.0 0.0 0.00 0.00 0.00 1 1016.5
20260505120053 50 186 0.0 0.0 0.00 0.00 0.00 1 1016.1
20260505114553 49 186 0.0 0.0 0.00 0.00 0.00 1 1016.0
20260505113042 48 184 0.0 0.0 0.00 0.00 0.00 1 1016.0
20260505111536 0 184 0.0 0.0 0.00 0.00 0.00 1015.8
20260505101520 0 184 0.0 0.0 0.00 0.00 0.00 1015.3
20260505100015 0 184 0.0 0.0 0.00 0.00 0.00 1015.3
20260505094509 0 184 0.0 0.0 0.00 0.00 0.00 1015.3
20260505093006 0 184 0.0 0.0 0.00 0.00 0.00 1015.2
20260505091502 0 184 0.0 0.0 0.00 0.00 0.00 1015.1
20260505090109 0 184 0.0 0.0 0.00 0.00 0.00 1015.1
20260505084553 0 184 0.0 0.0 0.00 0.00 0.00 1015.2
20260505083052 0 184 0.0 0.0 0.00 0.00 0.00 1015.0
20260505081548 0 184 0.0 0.0 0.00 0.00 0.00 1015.1
20260505080050 0 184 0.0 0.0 0.00 0.00 0.00 1015.0
20260505074535 0 184 0.0 2.0 0.00 0.00 0.00 1014.9
20260505073044 0 184 1.0 3.0 0.00 0.00 0.00 1014.9
20260505071526 0 184 2.0 4.0 0.00 0.00 0.00 1014.9
20260505070023 0 184 3.0 6.0 0.00 0.00 0.00 1014.8
20260505064517 0 184 2.0 5.0 0.00 0.00 0.00 1014.8
20260505063101 0 184 3.0 6.0 0.00 0.00 0.00 1014.8
20260505061600 0 184 3.0 6.0 0.00 0.00 0.00 1014.8
20260505060049 0 184 2.0 6.0 0.00 0.00 0.00 1014.9
20260505054545 0 184 1.0 5.0 0.00 0.00 0.00 1015.0
20260505053040 0 184 2.0 6.0 0.00 0.00 0.00 1015.1
20260505051537 0 184 2.0 6.0 0.00 0.00 0.00 1015.2
20260505041536 0 188 3.0 7.0 0.00 0.00 0.00 1015.3
20260505040014 0 192 3.0 8.0 0.00 0.00 0.00 1015.3
20260505034513 0 201 0.0 0.0 0.00 0.00 0.00 1015.3
20260505033013 0 202 0.0 0.0 0.00 0.00 0.00 1015.3
20260505031513 0 202 0.0 0.0 0.00 0.00 0.00 1015.3
20260505030012 0 202 0.0 0.0 0.00 0.00 0.00 1015.4
20260505024510 0 202 0.0 0.0 0.00 0.00 0.00 1015.2
20260505023010 0 202 0.0 0.0 0.00 0.00 0.00 1015.2
20260505021510 0 203 0.0 0.0 0.00 0.00 0.00 1015.2
20260505020014 0 202 0.0 0.0 0.00 0.00 0.00 1015.1
20260505014508 0 203 0.0 0.0 0.00 0.00 0.00 1014.8
20260505013008 0 203 0.0 0.0 0.00 0.00 0.00 1014.8
20260505011510 0 203 0.0 0.0 0.00 0.00 0.00 1014.6
20260505010007 0 203 0.0 0.0 0.00 0.00 0.00 1014.5
20260505004506 0 203 0.0 1.0 0.00 0.00 0.00 1014.4
20260505003005 0 202 1.0 4.0 0.00 0.00 0.00 1014.2
20260505001506 0 202 1.0 5.0 0.00 0.00 0.00 1014.2
20260505000004 0 204 0.0 0.0 0.00 0.00 0.00 1014.1
20260504234504 0 204 0.0 0.0 0.00 0.00 0.00 1013.7
20260504233004 0 204 0.0 2.0 0.00 0.00 0.00 1013.6
20260504231502 0 198 1.0 3.0 0.00 0.00 0.00 1013.5
20260504230006 0 198 1.0 4.0 0.00 0.00 0.00 1013.6